This demonstration page uses our WeatherBlox Daily Observations layout. Learn more.

Left ArrowRight Arrow

Hourly Observations for March 23, 2020

Temp ( °F °C ) Dew Point ( °F °C ) Humidity (%) Winds ( mph kmh ) Pressure ( in mb ) Visibility ( mi km ) Precip ( " mm )
12:53 am 00:53 Cloudy 42 5.6 36 2.2 79 79 N N/A 30.18 1022 10 16.0934 N/A
1:39 am 01:39 Cloudy 43 6.1 36 2.2 76 76 N N/A 30.17 1022 10 16.0934 N/A
1:53 am 01:53 Cloudy with Haze 42 5.6 37 2.8 82 82 N N/A 30.16 1021 4 6.43736 N/A
2:19 am 02:19 Cloudy with Mist and Fog 42 5.6 40 4.4 92 92 N N/A 30.16 1021 2.5 4.02335 N/A
2:53 am 02:53 Cloudy with Mist and Fog 42 5.6 41 5 96 96 N N/A 30.14 1021 2 3.21868 0.01 0.254
2:55 am 02:55 Cloudy with Light Rain 42 5.6 41 5 96 96 N N/A 30.14 1021 2 3.21868 0.001 0.001
3:21 am 03:21 Cloudy with Mist and Fog 42 5.6 40 4.4 92 92 N 3 6 30.13 1020 3 4.82802 0.001 0.001
3:53 am 03:53 Cloudy with Mist and Fog 42 5.6 41 5 96 96 N N/A 30.09 1019 5 8.0467 0.001 0.001
4:53 am 04:53 Cloudy with Light Rain 43 6.1 41 5 93 93 N N/A 30.06 1018 3 4.82802 0.01 0.254
5:53 am 05:53 Cloudy with Mist and Fog 42 5.6 40 4.4 92 92 N N/A 30.06 1018 2.5 4.02335 0.01 0.254
6:41 am 06:41 Cloudy with Mist and Fog 42 5.6 41 5 96 96 NW 3 6 30.09 1019 2 3.21868 N/A
6:53 am 06:53 Cloudy with Mist and Fog 42 5.6 41 5 96 96 N N/A 30.08 1019 2.5 4.02335 N/A
7:01 am 07:01 Cloudy with Mist and Fog 42 5.6 41 5 96 96 N N/A 30.09 1019 3 4.82802 N/A
7:16 am 07:16 Cloudy with Mist and Fog 42 5.6 40 4.4 92 92 NW 3 6 30.09 1019 5 8.0467 N/A
7:37 am 07:37 Cloudy with Mist and Fog 42 5.6 41 5 96 96 WSW 3 6 30.12 1020 4 6.43736 N/A
7:53 am 07:53 Cloudy with Mist and Fog 42 5.6 41 5 96 96 W 3 6 30.11 1020 5 8.0467 N/A
8:48 am 08:48 Cloudy with Mist and Fog 43 6 41 5 93 93 WNW 8 13 30.14 1021 6 9.65604 N/A
8:53 am 08:53 Cloudy 43 6.1 41 5 93 93 WNW 7 11 30.13 1020 7 11.26538 N/A
9:05 am 09:05 Cloudy 43 6.1 41 5 93 93 WNW 5 7 30.14 1021 7 11.26538 N/A
9:27 am 09:27 Cloudy 43 6.1 41 5 93 93 WNW 5 7 30.14 1021 8 12.87472 N/A
9:53 am 09:53 Cloudy 44 6.7 40 4.4 85 85 NW 12 19 30.14 1021 10 16.0934 N/A
10:25 am 10:25 Cloudy 45 7.2 39 3.9 80 80 WNW 10 17 30.15 1021 10 16.0934 N/A
10:53 am 10:53 Cloudy 45 7.2 39 3.9 80 80 NW 13 20 30.15 1021 10 16.0934 N/A
11:53 am 11:53 Cloudy 47 8.3 39 3.9 74 74 WNW 8 13 30.15 1021 10 16.0934 N/A
12:53 pm 12:53 Cloudy 48 8.9 39 3.9 71 71 WNW 12 19 30.16 1021 10 16.0934 N/A
1:53 pm 13:53 Mostly Cloudy 50 10 39 3.9 66 66 NW 13 20 30.16 1021 10 16.0934 N/A
2:53 pm 14:53 Cloudy 49 9.4 38 3.3 66 66 WNW 9 15 30.14 1021 10 16.0934 N/A
3:36 pm 15:36 Mostly Cloudy 50 10 38 3.3 63 63 NW 10 17 30.14 1021 10 16.0934 N/A
3:53 pm 15:53 Mostly Cloudy 51 10.6 39 3.9 64 64 NW 8 13 30.14 1021 10 16.0934 N/A
4:32 pm 16:32 Partly Cloudy 50 10 38 3.3 63 63 NNW 7 11 30.14 1021 10 16.0934 N/A
4:53 pm 16:53 Sunny 50 10 37 2.8 61 61 WNW 7 11 30.14 1021 10 16.0934 N/A
5:53 pm 17:53 Sunny 51 10.6 38 3.3 61 61 NNW 8 13 30.14 1021 10 16.0934 N/A
6:53 pm 18:53 Sunny 50 10 38 3.3 63 63 N 6 9 30.16 1021 10 16.0934 N/A
7:53 pm 19:53 Sunny 46 7.8 37 2.8 71 71 N 6 9 30.16 1022 10 16.0934 N/A
8:38 pm 20:38 Mostly Cloudy 44 6.7 36 2.2 73 73 NNW 6 9 30.2 1023 10 16.0934 N/A
8:53 pm 20:53 Mostly Cloudy 44 6.7 36 2.2 73 73 N 6 9 30.19 1022 10 16.0934 N/A
9:22 pm 21:22 Mostly Clear 43 6.1 36 2.2 76 76 N 5 7 30.2 1023 10 16.0934 N/A
9:53 pm 21:53 Clear 42 5.6 36 2.2 79 79 N N/A 30.2 1023 10 16.0934 N/A
10:53 pm 22:53 Clear 40 4.4 35 1.7 83 83 N N/A 30.2 1023 10 16.0934 N/A
11:53 pm 23:53 Clear 37 2.8 34 1.1 89 89 N N/A 30.2 1023 10 16.0934 N/A

Powered by AerisWeather